SL-8 DEB, 1335

Orbit data source: Space-Track

SL-8 DEB, 1335 is space debris in LEO originally from a launch on Mon, 15 Mar 1965 UTC launched from the Tyuratam Missile And Space Complex (TTMTR). Debris objects in space refer to the collection of defunct objects orbiting the Earth. Examples of debris include non-operational satellites, rocket bodies, and fragments generated from explosions, collisions, or faulty payload assembly.

Loading next visibility...
Identifier
1335, 1965-020E
Orbit
LEO
Country
Flag of CISCIS
Related business
Manufacturer
Unknown
Mission
Spacecraft
Bus & Motor
Unknown
Mass
Unknown
Launch date (UTC)
1965-03-15 (61 years ago)
Launch vehicle
Unknown
Launch site
Tyuratam Missile And Space Complex (TTMTR)
Object type
Payload
Rocket body
Debris
Shape & HBR
Unknown shape, 0.1 m
Radar Cross Section
Medium (>0.1 m² and <1 m²)

Expand to show TLE details & history
Last TLE update: 10 hours ago

TLE from 10 hours ago
0 SL-8 DEB
1  1335U 65020E   26131.27995433  .00001300  00000-0  40690-3 0  9996
2  1335  56.0727  91.2505 0528669  82.6880 283.3841 13.87507187  4865
Epoch: 2026-05-11T06:43Z
TLE epoch observation values (Epoch: 2026-05-11T06:43:08.054Z)
Latitude
-0.00005°
Longitude
121.39595°
Altitude
868.663 km
Speed
7.454 km/s
True Right ascension
06h 05m 00s
True Declination
0° 00' 00"
Sunlit
Object was in daylight at epoch
Visualization orbit readout
Latitude
Unknown
Longitude
Unknown
Altitude
Unknown
Speed
Unknown
Apparent Right ascension
Unknown
Apparent Declination
Unknown
Sunlit
N/A
Visualization observer readout
Local Sidereal Time
00:41:08
Azimuth
Unknown
Elevation
Unknown
Doppler factor
Unknown
Orbital elements
Apogee altitude
1,323.925 km
Perigee altitude
550.448 km
Semi-major axis
7,315.324 km
Eccentricity
0.05287
Inclination
56.0727°
RAAN
91.2505°
Arg. of periapsis
82.688°
True anomaly
277.4099°
Mean anomaly
283.3841°
Eccentric anomaly
280.40486°
Mean motion
3.46891 °/min
Orbital period
103.78 mins
BSTAR
0.0004069
Loading maneuver chart data...
Computing Atmospheric mass density...
Loading historical data...
Loading historical data...
Loading historical data...
Loading historical data...
Loading historical data...
Loading historical data...
Loading historical data...

Documentation

Showing up to 5 results
|